Weather History for Cheyenne, WY

Change the Weather History Date:

Sunday, March 3, 2013

  Actual Average Record
Temperature  
Mean Temperature 45 °F 33 °F  
Max Temperature 55 °F 44 °F 65 °F (1994)
Min Temperature 34 °F 22 °F -11 °F (1954)
Degree Days  
Heating Degree Days 20 32  
Month to date heating degree days 73 97  
Since 1 July heating degree days 5006 5116  
Cooling Degree Days 0 0  
Month to date cooling degree days 0 0  
Year to date cooling degree days 0 0  
Moisture  
Dew Point 21 °F    
Average Humidity 42    
Maximum Humidity 56    
Minimum Humidity 28    
Precipitation  
Precipitation 0.00 in 0.02 in 0.35 in (1961)
Month to date precipitation 0.00 0.07  
Year to date precipitation 0.88 0.87  
Snow  
Snow 0.00 in 0.30 in 5.80 in (1961)
Month to date snowfall 0.0 0.9  
Since 1 July snowfall 38.4 37.4  
Snow Depth 0.00 in    
Sea Level Pressure  
Sea Level Pressure 29.69 in    
Wind  
Wind Speed 20 mph (West)    
Max Wind Speed 36 mph    
Max Gust Speed 45 mph    
Visibility 10 miles    
Events      
T = Trace of Precipitation, MM = Missing Value Source: NWS Daily Summary

Daily Weather History Graph

Daily Weather History Graph

Search for Another Location

Airport:

Trip Planner

Search our weather history database for the weather conditions in past years. The results will help you decide how hot, cold, wet, or windy it might be!

Date:

Astronomy

Mar. 03, 2013 Rise Set
Actual Time 6:29 AM MST 5:52 PM MST
Civil Twilight 6:02 AM MST 6:20 PM MST
Nautical Twilight 5:30 AM MST 6:52 PM MST
Astronomical Twilight 4:58 AM MST 7:24 PM MST
Moon No Moon Rise 9:43 AM MST (3/3)
Length of Visible Light 12h 18m
Length of Day
11h 22m
Waning Gibbous, 63% of the Moon is Illuminated
Mar 3
Waning Gibbous
Mar 4
Last Quarter
Mar 11
New
Mar 19
First Quarter
Mar 27
Full

Hourly Weather History & Observations

Time (MST) Temp. Windchill Dew Point Humidity Pressure Visibility Wind Dir Wind Speed Gust Speed Precip Events Conditions
12:53 AM 37.9 °F 31.5 °F 21.9 °F 53% 29.91 in 10.0 mi WSW 9.2 mph - N/A   Clear
1:53 AM 37.9 °F 30.9 °F 21.0 °F 51% 29.88 in 10.0 mi West 10.4 mph - N/A   Clear
2:53 AM 35.1 °F 27.9 °F 21.0 °F 57% 29.84 in 10.0 mi West 9.2 mph - N/A   Clear
3:53 AM 37.4 °F 32.8 °F 19.4 °F 48% 29.89 in 10.0 mi NW 5.8 mph - N/A   Clear
4:53 AM 43.0 °F 38.2 °F 17.1 °F 35% 29.80 in 10.0 mi WNW 8.1 mph - N/A   Clear
5:53 AM 43.0 °F 35.4 °F 18.0 °F 37% 29.79 in 10.0 mi West 16.1 mph - N/A   Clear
6:53 AM 44.1 °F 35.9 °F 18.0 °F 35% 29.78 in 10.0 mi West 19.6 mph - N/A   Clear
7:53 AM 45.0 °F 37.6 °F 19.0 °F 36% 29.76 in 10.0 mi West 17.3 mph - N/A   Clear
8:53 AM 46.9 °F - 18.0 °F 32% 29.72 in 10.0 mi West 26.5 mph 38.0 mph N/A   Clear
9:53 AM 50.0 °F - 19.0 °F 29% 29.71 in 10.0 mi West 27.6 mph 38.0 mph N/A   Clear
10:53 AM 51.1 °F - 19.9 °F 29% 29.70 in 10.0 mi WNW 16.1 mph 31.1 mph N/A   Partly Cloudy
11:53 AM 52.0 °F - 23.0 °F 32% 29.67 in 10.0 mi West 19.6 mph 27.6 mph N/A   Partly Cloudy
12:53 PM 53.1 °F - 21.9 °F 30% 29.62 in 10.0 mi West 23.0 mph 31.1 mph N/A   Clear
1:53 PM 54.0 °F - 21.9 °F 29% 29.61 in 10.0 mi West 27.6 mph 35.7 mph N/A   Clear
2:53 PM 54.0 °F - 21.9 °F 29% 29.60 in 10.0 mi West 31.1 mph 43.7 mph N/A   Clear
3:53 PM 51.1 °F - 21.0 °F 31% 29.60 in 10.0 mi West 21.9 mph 38.0 mph N/A   Clear
4:53 PM 48.9 °F - 21.9 °F 35% 29.59 in 10.0 mi West 25.3 mph 36.8 mph N/A   Clear
5:53 PM 44.1 °F 35.2 °F 24.1 °F 45% 29.61 in 10.0 mi West 23.0 mph 32.2 mph N/A   Clear
6:53 PM 41.0 °F 32.2 °F 25.0 °F 53% 29.62 in 10.0 mi West 18.4 mph - N/A   Clear
7:53 PM 42.1 °F 32.3 °F 24.1 °F 49% 29.59 in 10.0 mi West 24.2 mph - N/A   Clear
8:53 PM 39.9 °F 28.6 °F 24.1 °F 53% 29.57 in 10.0 mi West 28.8 mph 35.7 mph N/A   Clear
9:53 PM 41.0 °F 30.7 °F 24.1 °F 51% 29.54 in 10.0 mi West 25.3 mph 35.7 mph N/A   Clear
10:53 PM 41.0 °F 30.5 °F 21.9 °F 47% 29.53 in 10.0 mi West 26.5 mph 36.8 mph N/A   Clear
11:53 PM 42.1 °F 32.8 °F 19.0 °F 40% 29.53 in 10.0 mi WNW 21.9 mph 36.8 mph N/A   Clear